Language: 


Des rapports , des résumés tant et plus, au choix de chacun....


Données Historiques de Météogheer
Journalier Rapport pour Novembre 21, 2017 Unitée:  Impériale    Métrique   Les deux
Suivant Jour »
Journalier Hebdomadaire Mensuel Annuel Sur mesure
  Max: Min: Moyenne:
Température: 54.9 °F 51.8 °F 53.8 °F
Point de rosée: 55.4 °F 50 °F 53.1 °F
Humidité: 98% 90% 95%
Vent: 20.6mph 0.9mph 8.3mph
Rafales: 20.6mph - -
Vent- - WSW
Pression: 29.9 in 29.8 in -
Pluie: 0.16 in    
Historical Graphs
 
 
Données tabulaires pour Novembre 21, 2017
Heure Température Point de rosée Pression Vent Vent Rafales Humidité Pluie Taux (Horaire) Conditions
00:00 54.3 °F 55.4 °F 29.9 in West 10.1 mph 10.1 mph 98% 0.03 in
00:05 54.3 °F 55.4 °F 29.9 in WSW 8.1 mph 11 mph 98% 0.03 in
00:15 54.3 °F 55.4 °F 29.9 in West 7.4 mph 9.8 mph 98% 0.02 in
00:30 54.5 °F 55.4 °F 29.9 in West 8.1 mph 12.3 mph 98% 0.04 in
00:35 54.5 °F 55.4 °F 29.9 in West 6.5 mph 11.9 mph 98% 0.04 in
00:40 54.5 °F 55.4 °F 29.9 in WSW 10.1 mph 11.9 mph 98% 0.03 in
00:55 54.3 °F 55.4 °F 29.9 in West 9.2 mph 9.6 mph 98% 0.04 in
01:00 54.3 °F 55.4 °F 29.9 in West 6.7 mph 10.3 mph 98% 0.03 in
01:05 54.3 °F 55.4 °F 29.9 in WSW 1.3 mph 10.3 mph 98% 0.04 in
01:15 54.3 °F 55.4 °F 29.9 in WSW 6.5 mph 6.5 mph 98% 0.05 in
01:23 54.1 °F 55.4 °F 29.9 in WSW 8.7 mph 8.7 mph 98% 0.05 in
01:28 54.1 °F 55.4 °F 29.9 in WSW 6 mph 9.8 mph 98% 0.05 in
01:33 54.1 °F 55.4 °F 29.9 in West 9.8 mph 9.8 mph 98% 0.06 in
01:34 54.1 °F 55.4 °F 29.9 in WSW 6 mph 9.8 mph 98% 0.06 in
01:35 54.1 °F 55.4 °F 29.9 in WSW 7.2 mph 9.8 mph 98% 0.06 in
01:40 54.3 °F 55.4 °F 29.9 in SW 6 mph 9.8 mph 98% 0.06 in
01:50 54.3 °F 55.4 °F 29.9 in West 7.8 mph 12.3 mph 98% 0.06 in
01:55 54.3 °F 55.4 °F 29.9 in West 6 mph 10.3 mph 98% 0.05 in
02:05 54.3 °F 55.4 °F 29.9 in WSW 6.5 mph 12.3 mph 98% 0.05 in
02:15 54.3 °F 55.4 °F 29.9 in West 7.8 mph 12.8 mph 98% 0.03 in
02:20 54.3 °F 55.4 °F 29.9 in West 6.3 mph 13 mph 98% 0.02 in
02:30 54.5 °F 55.4 °F 29.9 in WSW 8.5 mph 13.2 mph 98% 0.03 in
02:35 54.5 °F 55.4 °F 29.9 in WSW 11 mph 13.2 mph 98% 0.03 in
02:41 54.3 °F 55.4 °F 29.9 in WSW 6.5 mph 11 mph 98% 0.04 in
02:46 54.5 °F 55.4 °F 29.9 in WSW 6.5 mph 12.1 mph 98% 0.04 in
03:07 54.3 °F 55.4 °F 29.9 in WSW 6.9 mph 13.2 mph 98% 0.04 in
03:12 54.3 °F 55.4 °F 29.9 in West 6.3 mph 12.8 mph 98% 0.04 in
03:17 54.3 °F 55.4 °F 29.9 in West 7.6 mph 12.8 mph 98% 0.04 in
03:22 54.3 °F 55.4 °F 29.9 in WSW 6.3 mph 10.5 mph 98% 0.04 in
03:27 54.3 °F 55.4 °F 29.9 in WSW 10.5 mph 10.5 mph 98% 0.03 in
03:37 54.3 °F 55.4 °F 29.9 in West 10.1 mph 15.2 mph 98% 0.02 in
03:42 54.5 °F 55.4 °F 29.9 in West 11 mph 15.2 mph 98% 0.02 in
03:47 54.5 °F 55.4 °F 29.9 in WSW 5.8 mph 15.2 mph 98% 0.02 in
03:53 54.5 °F 55.4 °F 29.9 in West 8.1 mph 13.2 mph 98% 0.01 in
03:58 54.5 °F 55.4 °F 29.9 in West 8.5 mph 11 mph 98% 0.01 in
04:08 54.5 °F 55.4 °F 29.9 in West 10.5 mph 10.5 mph 98% 0.01 in
04:14 54.5 °F 55.4 °F 29.9 in West 8.1 mph 15.7 mph 98% 0.01 in
04:19 54.7 °F 55.4 °F 29.9 in West 6.3 mph 15.7 mph 98% 0.01 in
04:23 54.7 °F 55.4 °F 29.9 in West 12.5 mph 14.5 mph 98% 0 in
04:24 54.7 °F 55.4 °F 29.9 in West 10.7 mph 14.5 mph 98% 0 in
04:29 54.7 °F 55.4 °F 29.9 in West 12.3 mph 12.5 mph 98% 0.01 in
04:35 54.7 °F 55.4 °F 29.9 in West 6.9 mph 14.8 mph 98% 0.01 in
04:40 54.7 °F 55.4 °F 29.9 in WSW 7.8 mph 12.8 mph 98% 0.01 in
04:46 54.7 °F 55.4 °F 29.9 in West 6.3 mph 12.8 mph 98% 0.01 in
04:50 54.7 °F 55.4 °F 29.9 in West 5.8 mph 12.1 mph 98% 0.01 in
05:01 54.7 °F 55.4 °F 29.9 in West 7.4 mph 11 mph 98% 0.01 in
05:06 54.5 °F 55.4 °F 29.9 in West 10.5 mph 11 mph 98% 0.01 in
05:21 54.5 °F 55.4 °F 29.9 in WSW 10.5 mph 12.3 mph 98% 0.01 in
05:26 54.5 °F 55.4 °F 29.9 in WSW 7.6 mph 14.8 mph 98% 0 in
05:31 54.5 °F 55.4 °F 29.9 in WSW 15.2 mph 15.2 mph 98% 0 in
05:36 54.5 °F 55.4 °F 29.9 in WSW 12.5 mph 17.2 mph 98% 0 in
05:41 54.5 °F 55.4 °F 29.9 in West 20.6 mph 20.6 mph 98% 0 in
05:42 54.5 °F 55.4 °F 29.9 in WSW 10.1 mph 20.6 mph 98% 0 in
05:52 54.5 °F 55.4 °F 29.9 in WSW 10.3 mph 17.2 mph 98% 0 in
05:57 54.5 °F 55.4 °F 29.9 in West 10.1 mph 17.4 mph 98% 0 in
06:02 54.5 °F 55.4 °F 29.9 in WSW 14.8 mph 17.4 mph 98% 0 in
06:12 54.5 °F 55.4 °F 29.9 in WSW 11 mph 17 mph 98% 0 in
06:22 54.5 °F 55.4 °F 29.9 in WSW 13.2 mph 15.4 mph 98% 0 in
06:38 54.5 °F 55.4 °F 29.9 in SW 12.5 mph 17.2 mph 98% 0 in
06:43 54.5 °F 55.4 °F 29.9 in WSW 11.4 mph 16.8 mph 98% 0 in
06:48 54.5 °F 55.4 °F 29.9 in WSW 13.2 mph 14.8 mph 98% 0 in
06:53 54.5 °F 55.4 °F 29.9 in WSW 12.1 mph 18.1 mph 98% 0 in
06:58 54.5 °F 55.4 °F 29.9 in WSW 12.3 mph 18.1 mph 98% 0 in
06:59 54.5 °F 55.4 °F 29.9 in WSW 13.6 mph 18.1 mph 98% 0 in
07:04 54.5 °F 55.4 °F 29.9 in WSW 10.5 mph 17.4 mph 98% 0 in
07:14 54.3 °F 55.4 °F 29.9 in West 13.2 mph 17.2 mph 98% 0 in
07:19 54.3 °F 55.4 °F 29.9 in West 8.1 mph 14.8 mph 98% 0 in
07:24 54.1 °F 55.4 °F 29.9 in WSW 13 mph 13.2 mph 98% 0 in
07:29 54 °F 53.6 °F 29.9 in WSW 13.2 mph 13.2 mph 98% 0 in
07:34 54 °F 53.6 °F 29.9 in West 10.3 mph 14.5 mph 98% 0 in
07:39 53.8 °F 53.6 °F 29.9 in WSW 9.8 mph 14.5 mph 98% 0 in
07:44 53.8 °F 53.6 °F 29.9 in WSW 8.7 mph 14.3 mph 98% 0 in
07:49 53.8 °F 53.6 °F 29.9 in WSW 10.7 mph 13.2 mph 98% 0 in
07:54 53.6 °F 53.6 °F 29.9 in WSW 7.8 mph 11.9 mph 98% 0 in
07:59 53.6 °F 53.6 °F 29.9 in WSW 7.4 mph 12.8 mph 98% 0 in
08:04 53.6 °F 53.6 °F 29.9 in WSW 10.1 mph 13.4 mph 98% 0 in
08:09 53.4 °F 53.6 °F 29.9 in WSW 7.8 mph 13.4 mph 98% 0 in
08:14 53.4 °F 53.6 °F 29.9 in West 12.8 mph 13.2 mph 98% 0 in
08:19 53.4 °F 53.6 °F 29.9 in WSW 8.9 mph 16.8 mph 98% 0 in
08:24 53.4 °F 53.6 °F 29.9 in West 9.8 mph 16.8 mph 98% 0 in
08:29 53.2 °F 53.6 °F 29.9 in WSW 13.2 mph 15.4 mph 98% 0 in
08:30 53.2 °F 53.6 °F 29.9 in WSW 12.5 mph 15.4 mph 98% 0 in
08:35 53.2 °F 53.6 °F 29.9 in WSW 7.6 mph 15.4 mph 98% 0 in
08:40 53.1 °F 53.6 °F 29.9 in WSW 10.5 mph 13.2 mph 98% 0 in
08:50 53.1 °F 53.6 °F 29.9 in WSW 8.7 mph 17.7 mph 98% 0 in
08:55 53.1 °F 53.6 °F 29.9 in WSW 11.4 mph 17.7 mph 98% 0 in
09:05 53.1 °F 53.6 °F 29.9 in WSW 11 mph 15.9 mph 98% 0 in
09:10 53.1 °F 53.6 °F 29.9 in West 11.2 mph 15.2 mph 98% 0 in
09:15 53.1 °F 53.6 °F 29.9 in West 10.1 mph 14.5 mph 98% 0 in
09:20 53.1 °F 53.6 °F 29.9 in WSW 10.1 mph 14.5 mph 98% 0 in
09:35 53.1 °F 53.6 °F 29.9 in WSW 6.7 mph 13 mph 98% 0 in
09:40 53.1 °F 53.6 °F 29.9 in WSW 5.6 mph 13 mph 98% 0 in
09:55 53.2 °F 53.6 °F 29.9 in WSW 10.3 mph 13 mph 98% 0 in
10:15 53.4 °F 53.6 °F 29.9 in WSW 11.9 mph 12.8 mph 98% 0 in
10:35 53.4 °F 53.6 °F 29.9 in WSW 8.5 mph 10.1 mph 98% 0 in
10:40 53.6 °F 53.6 °F 29.9 in SW 6.5 mph 10.5 mph 98% 0 in
10:41 53.6 °F 53.6 °F 29.9 in WSW 7.4 mph 10.5 mph 98% 0 in
10:46 53.6 °F 53.6 °F 29.9 in SW 5.8 mph 8.5 mph 98% 0 in
10:51 53.6 °F 53.6 °F 29.9 in SW 5.6 mph 8.1 mph 98% 0 in
10:56 53.8 °F 53.6 °F 29.9 in SW 9.8 mph 9.8 mph 98% 0 in
11:06 53.8 °F 53.6 °F 29.9 in SW 12.8 mph 12.8 mph 98% 0 in
11:12 54.1 °F 55.4 °F 29.9 in SW 11 mph 13 mph 98% 0 in
11:17 54.1 °F 55.4 °F 29.9 in WSW 7.6 mph 13.2 mph 98% 0 in
11:22 54.3 °F 53.6 °F 29.9 in SW 8.1 mph 13.2 mph 97% 0 in
11:23 54.3 °F 53.6 °F 29.9 in WSW 8.9 mph 10.5 mph 97% 0 in
11:33 54.3 °F 53.6 °F 29.9 in SW 10.1 mph 11.2 mph 96% 0 in
11:43 54.1 °F 53.6 °F 29.9 in WSW 11.4 mph 14.8 mph 95% 0 in
12:00 54.5 °F 53.6 °F 29.9 in WSW 6.5 mph 15.4 mph 95% 0 in
12:05 54.7 °F 53.6 °F 29.9 in WSW 9.6 mph 15.4 mph 95% 0 in
12:15 54.7 °F 53.6 °F 29.9 in SW 9.6 mph 12.5 mph 94% 0 in
12:20 54.7 °F 53.6 °F 29.9 in WSW 9.4 mph 13.2 mph 94% 0 in
12:25 54.7 °F 53.6 °F 29.9 in SSW 9.2 mph 13.2 mph 94% 0 in
12:30 54.5 °F 53.6 °F 29.9 in WSW 8.5 mph 12.8 mph 93% 0 in
12:36 54.5 °F 53.6 °F 29.9 in SW 14.5 mph 14.5 mph 93% 0 in
12:41 54.5 °F 53.6 °F 29.9 in WSW 9.8 mph 15.4 mph 93% 0 in
12:51 54.5 °F 53.6 °F 29.9 in WSW 13.2 mph 13.2 mph 93% 0 in
12:56 54.5 °F 53.6 °F 29.9 in WSW 6.9 mph 13.2 mph 93% 0 in
13:06 54.7 °F 53.6 °F 29.9 in SSW 10.1 mph 13.9 mph 93% 0 in
13:11 54.7 °F 53.6 °F 29.9 in WSW 8.7 mph 13.9 mph 92% 0 in
13:21 54.7 °F 53.6 °F 29.9 in WSW 7.8 mph 12.8 mph 92% 0 in
13:31 54.7 °F 53.6 °F 29.9 in WSW 8.7 mph 11 mph 91% 0 in
13:36 54.7 °F 53.6 °F 29.9 in SW 8.5 mph 11 mph 91% 0 in
13:46 54.5 °F 53.6 °F 29.9 in SSW 7.4 mph 12.1 mph 91% 0 in
13:51 54.5 °F 53.6 °F 29.9 in WSW 6.5 mph 12.1 mph 91% 0 in
14:01 54.5 °F 53.6 °F 29.9 in WSW 8.7 mph 10.5 mph 91% 0 in
14:06 54.5 °F 53.6 °F 29.9 in SW 8.5 mph 10.5 mph 91% 0 in
14:11 54.5 °F 53.6 °F 29.9 in WSW 9.6 mph 11 mph 91% 0 in
14:16 54.5 °F 53.6 °F 29.9 in SSW 9.6 mph 11 mph 91% 0 in
14:22 54.7 °F 53.6 °F 29.9 in SW 5.4 mph 10.3 mph 92% 0 in
14:32 54.7 °F 53.6 °F 29.9 in WSW 8.5 mph 12.1 mph 91% 0 in
14:37 54.7 °F 53.6 °F 29.9 in WSW 5.6 mph 12.1 mph 91% 0 in
14:47 54.9 °F 53.6 °F 29.9 in SW 10.5 mph 12.3 mph 91% 0 in
14:52 54.9 °F 53.6 °F 29.9 in WSW 6.9 mph 12.3 mph 91% 0 in
14:57 54.7 °F 53.6 °F 29.9 in WSW 6 mph 10.7 mph 91% 0 in
15:02 54.7 °F 53.6 °F 29.9 in SSW 7.2 mph 10.5 mph 91% 0 in
15:07 54.7 °F 53.6 °F 29.9 in WSW 10.1 mph 12.1 mph 91% 0 in
15:12 54.7 °F 53.6 °F 29.9 in WSW 8.9 mph 12.1 mph 91% 0 in
15:22 54.5 °F 51.8 °F 29.9 in WSW 6.3 mph 12.8 mph 90% 0 in
15:27 54.5 °F 51.8 °F 29.9 in SW 7.6 mph 12.8 mph 90% 0 in
15:32 54.5 °F 51.8 °F 29.9 in SSW 7.4 mph 9.8 mph 90% 0 in
15:37 54.3 °F 51.8 °F 29.9 in SW 6.3 mph 9.8 mph 90% 0 in
15:42 54.1 °F 51.8 °F 29.8 in SW 10.5 mph 10.5 mph 90% 0 in
15:47 54.1 °F 51.8 °F 29.8 in WSW 5.8 mph 10.5 mph 90% 0 in
16:02 54 °F 51.8 °F 29.8 in SW 6.9 mph 9.8 mph 90% 0 in
16:12 53.8 °F 51.8 °F 29.9 in SSW 5.8 mph 11.2 mph 90% 0 in
16:17 53.8 °F 51.8 °F 29.9 in WSW 7.6 mph 12.5 mph 90% 0 in
16:22 53.6 °F 51.8 °F 29.9 in SW 6.7 mph 12.5 mph 90% 0 in
16:28 53.6 °F 51.8 °F 29.8 in WSW 11 mph 11 mph 90% 0 in
16:38 53.4 °F 51.8 °F 29.8 in SW 5.4 mph 10.7 mph 91% 0 in
16:39 53.4 °F 51.8 °F 29.8 in WSW 8.7 mph 9.4 mph 91% 0 in
16:44 53.4 °F 51.8 °F 29.9 in SW 6 mph 10.1 mph 91% 0 in
16:49 53.4 °F 51.8 °F 29.9 in SW 7.8 mph 10.1 mph 91% 0 in
16:54 53.4 °F 51.8 °F 29.9 in SSW 7.4 mph 10.7 mph 91% 0 in
16:59 53.4 °F 51.8 °F 29.9 in South 5.6 mph 10.7 mph 91% 0 in
17:04 53.4 °F 51.8 °F 29.9 in SSW 9.8 mph 10.1 mph 91% 0 in
17:09 53.4 °F 51.8 °F 29.9 in SW 8.7 mph 9.8 mph 91% 0 in
17:14 53.4 °F 51.8 °F 29.9 in South 5.8 mph 9.8 mph 91% 0.01 in
17:25 53.2 °F 50 °F 29.9 in SSW 5.4 mph 10.1 mph 91% 0.01 in
17:40 53.1 °F 50 °F 29.9 in SSW 6 mph 9.6 mph 91% 0.01 in
17:50 53.1 °F 50 °F 29.9 in SW 7.8 mph 10.1 mph 91% 0.01 in
17:55 53.1 °F 50 °F 29.9 in SSW 7.8 mph 10.3 mph 91% 0.01 in
18:00 53.1 °F 50 °F 29.9 in SW 9.2 mph 11 mph 91% 0.01 in
18:05 53.1 °F 50 °F 29.9 in WSW 7.8 mph 11 mph 91% 0.01 in
18:10 53.1 °F 50 °F 29.9 in SW 7.4 mph 11 mph 91% 0.01 in
18:25 52.9 °F 50 °F 29.9 in WSW 7.6 mph 11 mph 91% 0 in
18:30 52.9 °F 50 °F 29.9 in SW 6.5 mph 11 mph 91% 0 in
18:40 52.9 °F 50 °F 29.9 in SW 7.6 mph 9.6 mph 91% 0 in
18:45 52.9 °F 50 °F 29.9 in WSW 5.6 mph 9.6 mph 91% 0 in
18:51 52.9 °F 50 °F 29.9 in WSW 6.5 mph 8.5 mph 91% 0 in
18:56 52.9 °F 50 °F 29.9 in West 8.1 mph 8.7 mph 91% 0 in
19:06 52.7 °F 50 °F 29.9 in WSW 6.5 mph 10.3 mph 92% 0 in
19:11 52.7 °F 50 °F 29.8 in WSW 5.4 mph 10.3 mph 91% 0 in
19:16 52.7 °F 50 °F 29.8 in SW 6.3 mph 8.9 mph 91% 0 in
19:21 52.7 °F 50 °F 29.8 in SSW 6.3 mph 8.5 mph 91% 0 in
19:26 52.7 °F 50 °F 29.8 in WSW 5.6 mph 8.7 mph 91% 0 in
19:31 52.7 °F 50 °F 29.8 in SSW 9.8 mph 10.1 mph 91% 0 in
19:41 52.7 °F 50 °F 29.8 in SSW 4.9 mph 9.6 mph 91% 0 in
19:46 52.7 °F 50 °F 29.8 in SW 7.8 mph 9.6 mph 91% 0 in
19:56 52.7 °F 50 °F 29.8 in SW 6.5 mph 10.1 mph 91% 0 in
20:06 52.7 °F 50 °F 29.8 in SW 3.6 mph 7.8 mph 91% 0 in
20:11 52.7 °F 50 °F 29.8 in SW 4.9 mph 7.6 mph 91% 0 in
20:16 52.7 °F 50 °F 29.8 in SW 7.4 mph 7.8 mph 91% 0 in
20:21 52.7 °F 50 °F 29.8 in SSW 6.5 mph 8.7 mph 90% 0 in
20:26 52.7 °F 50 °F 29.8 in SW 6.5 mph 8.7 mph 90% 0 in
20:31 52.7 °F 50 °F 29.8 in SW 5.4 mph 8.1 mph 90% 0 in
20:37 52.7 °F 50 °F 29.8 in SSW 8.5 mph 8.5 mph 90% 0 in
20:42 52.5 °F 50 °F 29.8 in SSW 5.8 mph 8.7 mph 91% 0 in
20:52 52.5 °F 50 °F 29.8 in WSW 6.3 mph 11 mph 91% 0 in
20:57 52.3 °F 50 °F 29.8 in SSW 4.3 mph 8.7 mph 91% 0 in
21:02 52.2 °F 50 °F 29.8 in South 3.6 mph 7.8 mph 91% 0 in
21:07 52.2 °F 50 °F 29.8 in SW 6 mph 8.5 mph 91% 0 in
21:12 52.2 °F 50 °F 29.8 in South 6.3 mph 8.5 mph 92% 0 in
21:17 52.2 °F 50 °F 29.8 in South 1.1 mph 8.1 mph 92% 0 in
21:22 52 °F 50 °F 29.8 in SW 7.8 mph 8.1 mph 92% 0 in
21:32 51.8 °F 50 °F 29.8 in SSW 6 mph 7.8 mph 92% 0 in
21:37 51.8 °F 50 °F 29.8 in SSW 6.5 mph 8.7 mph 92% 0 in
21:47 51.8 °F 50 °F 29.8 in SSW 6.3 mph 9.8 mph 93% 0 in
21:52 51.8 °F 50 °F 29.8 in SSW 6.5 mph 8.5 mph 93% 0 in
22:02 51.8 °F 50 °F 29.8 in South 2.2 mph 6.5 mph 93% 0 in
22:07 52 °F 50 °F 29.8 in SSW 5.8 mph 7.4 mph 93% 0 in
22:12 52 °F 50 °F 29.8 in SSW 0.9 mph 8.1 mph 93% 0 in
22:17 52 °F 50 °F 29.8 in SSW 2.7 mph 9.4 mph 93% 0 in
22:22 52 °F 50 °F 29.8 in SW 8.7 mph 10.5 mph 93% 0 in
22:27 52.2 °F 50 °F 29.8 in SSW 6 mph 10.5 mph 93% 0 in
22:32 52.2 °F 50 °F 29.8 in SW 7.6 mph 10.3 mph 93% 0 in
22:37 52.2 °F 50 °F 29.8 in SSW 5.4 mph 10.3 mph 92% 0 in
22:42 52.3 °F 50 °F 29.8 in SSW 6.5 mph 11 mph 92% 0 in
22:48 52.3 °F 50 °F 29.8 in South 7.6 mph 11 mph 92% 0 in
22:53 52.3 °F 50 °F 29.8 in South 7.4 mph 12.5 mph 92% 0 in
22:58 52.3 °F 50 °F 29.8 in SSW 3.6 mph 12.5 mph 92% 0 in
23:13 52.5 °F 50 °F 29.8 in SSW 6 mph 10.3 mph 92% 0 in
23:18 52.5 °F 50 °F 29.8 in SW 7.4 mph 10.3 mph 91% 0 in
23:28 52.5 °F 50 °F 29.8 in SSW 8.7 mph 10.5 mph 91% 0 in
23:33 52.5 °F 50 °F 29.8 in SSW 7.6 mph 9.8 mph 91% 0 in
23:39 52.5 °F 50 °F 29.8 in SSW 7.6 mph 12.1 mph 91% 0 in
23:43 52.5 °F 50 °F 29.8 in SSW 10.7 mph 12.1 mph 91% 0 in
23:49 52.5 °F 50 °F 29.8 in SSW 10.3 mph 13 mph 91% 0 in
23:54 52.5 °F 50 °F 29.8 in SSW 8.1 mph 14.3 mph 91% 0 in
Données Historique de Météo Turbie

Mise a jour : 26/05/2018 15:42:12
Généré par Cumulus 1.9.4 (1099)